Waarnemingen

Advertentie
Mijn weer
Biscarosse, Frankrijk (7503): temperatuur & dauwpunt: 16.04.2018 03:00:00 - 22.04.2018 03:00:00 (CEST)Biscarosse, Frankrijk (7503): temperatuur 5cm: 16.04.2018 03:00:00 - 22.04.2018 03:00:00 (CEST)Biscarosse, Frankrijk (7503): temperatuur -20cm & temperatuur -100cm: 16.04.2018 03:00:00 - 22.04.2018 03:00:00 (CEST)Biscarosse, Frankrijk (7503): windsnelheid & windstoten: 16.04.2018 03:00:00 - 22.04.2018 03:00:00 (CEST)Biscarosse, Frankrijk (7503): windrichting: 16.04.2018 03:00:00 - 22.04.2018 03:00:00 (CEST)Biscarosse, Frankrijk (7503): luchtdruk: 16.04.2018 03:00:00 - 22.04.2018 03:00:00 (CEST)Biscarosse, Frankrijk (7503): zicht: 16.04.2018 03:00:00 - 22.04.2018 03:00:00 (CEST)Biscarosse, Frankrijk (7503): Zonneschijnduur: 16.04.2018 03:00:00 - 22.04.2018 03:00:00 (CEST)Biscarosse, Frankrijk (7503): neerslag: 16.04.2018 03:00:00 - 22.04.2018 03:00:00 (CEST)
Datum & Tijd tt [°C] td [°C] tt 5cm [°C] tt -20cm [°C] tt -100cm [°C] ff [km/u] ff [kn] fx [km/u] fx [kn] dd ppp [hPa] vv [km] sd [min] rr [mm]
22.04.2018 03:00:00 - - - - - - - - - - - - - -
22.04.2018 02:00:00 19,2 9,9 16,8 24,3 17,2 8 4 10 5 ZO 1015,7 20 0 0,0
22.04.2018 01:00:00 19,1 8,1 17,2 24,6 17,2 8 5 13 7 ZO 1015,6 20 0 0,0
22.04.2018 00:00:00 20,2 8,2 17,8 25,0 17,2 6 3 10 6 ZO 1015,4 20 0 0,0
21.04.2018 23:00:00 20,5 8,8 18,3 25,3 17,2 8 4 12 6 O 1015,6 20 0 0,0
21.04.2018 22:00:00 20,4 8,7 19,0 25,6 17,2 9 5 15 8 O 1015,3 20 0 0,0
21.04.2018 21:00:00 20,9 8,8 19,9 25,8 17,2 8 4 11 6 O 1015,1 20 0 0,0
21.04.2018 20:00:00 22,4 8,1 21,9 25,8 17,2 8 4 21 11 NNO 1015,1 20 0 0,0
21.04.2018 19:00:00 23,8 7,4 24,6 25,5 17,2 15 8 22 12 N 1015,3 20 33 0,0
21.04.2018 18:00:00 25,2 6,9 26,1 25,0 17,2 13 7 20 11 N 1015,5 19 44 0,0
21.04.2018 17:00:00 25,1 6,8 29,8 24,3 17,1 13 7 16 9 N 1015,7 20 52 0,0
21.04.2018 16:00:00 25,8 7,8 32,1 23,5 17,1 10 5 16 8 NNW 1016,5 20 60 0,0
21.04.2018 15:00:00 25,0 10,1 31,6 22,6 17,1 12 6 16 8 NNW 1016,9 20 60 0,0
21.04.2018 14:00:00 25,7 9,9 33,2 21,8 17,1 11 6 16 8 NW 1017,1 20 60 0,0
21.04.2018 13:00:00 25,3 9,2 31,1 21,1 17,1 6 3 16 8 NNW 1017,9 20 60 0,0
21.04.2018 12:00:00 24,2 10,8 28,5 20,6 17,1 10 5 20 11 ONO 1018,4 20 60 0,0
21.04.2018 11:00:00 22,8 11,8 24,7 20,5 17,0 15 8 24 13 O 1018,7 19 60 0,0
21.04.2018 10:00:00 19,8 11,3 20,1 20,6 17,0 11 6 19 10 O 1018,9 20 60 0,0
21.04.2018 09:00:00 16,7 10,8 14,9 20,9 16,9 11 6 21 12 OZO 1019,0 20 60 0,0
21.04.2018 08:00:00 15,0 11,0 13,5 21,2 16,9 12 6 17 9 O 1019,0 17 7 0,0
21.04.2018 07:00:00 15,3 10,7 13,8 21,6 16,9 10 6 16 9 OZO 1018,6 20 0 0,0
21.04.2018 06:00:00 15,6 11,0 13,6 21,9 16,9 10 5 19 10 OZO 1018,4 20 0 0,0
21.04.2018 05:00:00 15,0 10,6 13,9 22,3 16,8 11 6 19 10 OZO 1018,8 20 0 0,0
21.04.2018 04:00:00 15,5 10,9 14,3 22,7 16,8 7 4 10 6 OZO 1018,9 20 0 0,0
21.04.2018 03:00:00 16,4 10,7 14,9 23,0 16,7 9 5 11 6 OZO 1019,1 20 0 0,0
21.04.2018 02:00:00 17,3 10,7 15,0 23,4 16,7 8 4 15 8 ZO 1019,4 20 0 0,0
21.04.2018 01:00:00 15,6 12,5 13,6 23,9 16,7 10 6 15 8 OZO 1019,4 20 0 0,0
21.04.2018 00:00:00 16,3 10,8 14,7 24,3 16,7 10 6 18 10 Z 1019,6 18 0 0,0
20.04.2018 23:00:00 15,5 11,9 14,2 24,7 16,6 6 4 7 4 O 1019,9 16 0 0,0
20.04.2018 22:00:00 16,0 12,0 14,7 25,1 16,6 5 3 9 5 NNO 1019,7 7 0 0,0
20.04.2018 21:00:00 16,5 12,3 15,6 25,3 16,6 7 4 19 10 N 1019,3 9 33 0,0
20.04.2018 20:00:00 17,6 13,3 19,3 25,3 16,6 11 6 16 9 N 1018,9 16 60 0,0
20.04.2018 19:00:00 19,0 12,3 21,0 25,0 16,6 8 5 12 6 NNW 1019,0 18 60 0,0
20.04.2018 18:00:00 19,6 12,4 21,4 24,6 16,6 10 5 18 10 NNW 1019,0 19 60 0,0
20.04.2018 17:00:00 20,6 12,3 27,2 23,9 16,6 7 4 22 12 WNW 1019,3 19 60 0,0
20.04.2018 16:00:00 21,8 12,4 29,1 23,1 16,5 8 4 18 10 W 1019,8 20 60 0,0
20.04.2018 15:00:00 22,5 10,0 30,1 22,3 16,5 7 4 22 12 NNW 1020,3 20 60 0,0
20.04.2018 14:00:00 22,8 9,6 29,1 21,5 16,5 11 6 16 9 NNW 1021,0 19 52 0,0
20.04.2018 13:00:00 24,9 7,5 30,7 20,8 16,5 9 5 16 9 WNW 1021,5 20 60 0,0
20.04.2018 12:00:00 23,4 8,7 28,6 20,4 16,5 5 3 11 6 N 1022,0 20 60 0,0
20.04.2018 11:00:00 22,0 9,8 24,8 20,2 16,4 3 2 16 9 WZW 1021,8 20 60 0,0
20.04.2018 10:00:00 18,8 9,0 17,1 20,4 16,4 12 6 23 12 OZO 1021,8 20 60 0,0
20.04.2018 09:00:00 16,1 6,5 13,9 20,7 16,3 13 7 28 15 O 1021,7 20 60 0,0
20.04.2018 08:00:00 14,3 5,4 12,7 21,0 16,3 15 8 24 13 O 1021,4 20 7 0,0
20.04.2018 07:00:00 14,1 5,4 13,1 21,4 16,2 14 8 25 14 O 1021,3 20 0 0,0
20.04.2018 06:00:00 14,9 5,4 13,7 21,8 16,2 16 9 26 14 O 1021,1 20 0 0,0
20.04.2018 05:00:00 15,5 5,7 14,4 22,2 16,2 14 8 29 16 OZO 1021,2 20 0 0,0
20.04.2018 04:00:00 16,1 6,0 15,1 22,6 16,2 16 8 29 16 O 1021,1 20 0 0,0
20.04.2018 03:00:00 16,5 6,3 15,5 23,0 16,1 15 8 30 16 O 1021,1 20 0 0,0
20.04.2018 02:00:00 17,4 6,6 16,2 23,4 16,1 15 8 28 15 O 1021,3 20 0 0,0
20.04.2018 01:00:00 18,7 7,2 16,5 23,8 16,1 15 8 24 13 O 1021,1 20 0 0,0
20.04.2018 00:00:00 19,1 8,1 16,9 24,1 16,0 14 7 21 11 O 1021,3 20 0 0,0
19.04.2018 23:00:00 20,4 9,3 18,4 24,5 16,0 10 5 24 13 O 1021,3 20 0 0,0
19.04.2018 22:00:00 22,1 10,9 18,6 24,7 16,0 12 7 20 11 O 1021,0 20 0 0,0
19.04.2018 21:00:00 23,8 9,8 21,1 24,9 16,0 9 5 16 9 O 1020,3 20 32 0,0
19.04.2018 20:00:00 26,0 8,9 25,9 24,8 16,0 8 5 20 11 ONO 1020,0 20 60 0,0
19.04.2018 19:00:00 23,3 10,7 24,5 24,5 15,9 14 8 27 15 N 1020,1 11 60 0,0
19.04.2018 18:00:00 24,8 8,3 24,7 24,0 15,9 17 9 26 14 N 1020,2 16 60 0,0
19.04.2018 17:00:00 25,9 7,9 27,7 23,3 15,9 13 7 27 14 N 1020,4 19 60 0,0
19.04.2018 16:00:00 25,1 7,2 25,7 22,5 15,9 16 9 26 14 N 1021,0 19 45 0,0
19.04.2018 15:00:00 25,9 8,8 25,7 21,6 15,9 13 7 19 10 N 1021,7 19 54 0,0
19.04.2018 14:00:00 26,5 8,5 32,3 20,7 15,8 8 4 12 6 NW 1022,0 20 60 0,0
19.04.2018 13:00:00 25,9 8,8 31,4 20,0 15,8 6 3 27 15 ZW 1022,4 20 60 0,0
19.04.2018 12:00:00 25,3 8,3 28,8 19,5 15,8 8 5 22 12 ZO 1022,8 20 60 0,0
19.04.2018 11:00:00 22,4 10,8 23,3 19,3 15,7 11 6 22 12 OZO 1022,9 20 60 0,0
19.04.2018 10:00:00 18,9 11,0 17,2 19,5 15,7 9 5 22 12 OZO 1022,6 20 60 0,0
19.04.2018 09:00:00 15,8 10,1 14,1 19,8 15,6 13 7 23 12 OZO 1022,5 20 60 0,0
19.04.2018 08:00:00 14,3 9,7 13,5 20,1 15,6 10 6 16 9 OZO 1022,0 20 3 0,0
19.04.2018 07:00:00 14,6 9,6 13,3 20,5 15,5 9 5 19 10 ZO 1021,7 20 0 0,0
19.04.2018 06:00:00 14,6 9,6 13,6 20,8 15,5 10 6 21 11 OZO 1021,5 20 0 0,0
19.04.2018 05:00:00 15,2 9,8 14,3 21,3 15,5 13 7 24 13 O 1021,6 20 0 0,0
19.04.2018 04:00:00 16,0 10,1 15,1 21,6 15,4 16 8 26 14 O 1021,5 20 0 0,0
19.04.2018 03:00:00 17,1 10,2 16,0 22,0 15,4 16 9 28 15 OZO 1021,6 20 0 0,0
19.04.2018 02:00:00 17,9 10,5 16,8 22,4 15,4 17 9 28 15 O 1021,5 20 0 0,0
19.04.2018 01:00:00 18,8 10,6 17,5 22,7 15,3 14 8 29 16 O 1021,4 20 0 0,0
19.04.2018 00:00:00 20,6 9,8 19,1 23,1 15,3 11 6 20 11 OZO 1021,5 20 0 0,0
18.04.2018 23:00:00 21,7 9,6 19,8 23,4 15,3 9 5 18 10 ZO 1021,4 20 0 0,0
18.04.2018 22:00:00 22,5 8,9 20,8 23,7 15,3 10 5 16 9 OZO 1021,3 20 0 0,0
18.04.2018 21:00:00 23,9 9,1 21,7 23,8 15,3 9 5 13 7 OZO 1020,7 20 30 0,0
18.04.2018 20:00:00 25,9 10,5 25,3 23,6 15,3 4 2 10 5 NO 1020,4 6 60 0,0
18.04.2018 19:00:00 26,8 10,1 25,6 23,2 15,3 6 3 11 6 NNO 1020,6 5 60 0,0
18.04.2018 18:00:00 26,7 9,1 26,1 22,5 15,3 5 3 16 8 NNW 1020,5 13 60 0,0
18.04.2018 17:00:00 29,3 7,8 32,8 21,7 15,3 5 3 13 7 WNW 1020,6 18 60 0,0
18.04.2018 16:00:00 28,7 7,8 31,8 20,7 15,3 5 3 25 14 WNW 1021,0 16 60 0,0
18.04.2018 15:00:00 28,2 5,1 32,4 19,8 15,3 13 7 32 18 ZO 1021,4 20 60 0,0
18.04.2018 14:00:00 27,0 5,3 30,8 18,8 15,2 19 10 36 20 ZZO 1021,8 19 60 0,0
18.04.2018 13:00:00 25,2 6,4 29,2 18,1 15,2 16 9 36 20 ZO 1022,4 20 60 0,0
18.04.2018 12:00:00 23,8 9,4 27,8 17,6 15,2 12 6 28 15 OZO 1023,1 20 60 0,0
18.04.2018 11:00:00 21,8 10,6 22,5 17,4 15,2 12 7 24 13 ZO 1023,3 20 60 0,0
18.04.2018 10:00:00 18,5 10,3 18,3 17,4 15,1 8 5 24 13 OZO 1023,4 20 60 0,0
18.04.2018 09:00:00 15,3 10,1 13,1 17,7 15,1 13 7 21 11 O 1023,4 20 60 0,0
18.04.2018 08:00:00 13,2 10,0 11,5 18,0 15,0 11 6 18 10 O 1023,2 20 4 0,0
18.04.2018 07:00:00 13,3 10,1 11,6 18,3 15,0 10 5 18 10 O 1022,7 20 0 0,0
18.04.2018 06:00:00 13,5 10,5 11,3 18,6 15,0 8 4 12 7 O 1022,9 20 0 0,0
18.04.2018 05:00:00 13,7 10,7 12,0 19,0 15,0 7 4 12 6 O 1023,2 20 0 0,0
18.04.2018 04:00:00 14,2 10,6 12,7 19,3 14,9 9 5 13 7 O 1023,4 20 0 0,0
18.04.2018 03:00:00 14,5 10,3 12,2 19,7 14,9 7 4 12 7 ONO 1023,6 20 0 0,0
18.04.2018 02:00:00 14,9 10,1 13,4 20,1 14,9 8 5 14 7 O 1023,9 20 0 0,0
18.04.2018 01:00:00 16,0 9,9 14,4 20,5 14,8 9 5 17 9 O 1023,9 20 0 0,0
18.04.2018 00:00:00 17,1 10,0 15,2 20,8 14,8 12 6 18 10 O 1023,9 19 0 0,0
17.04.2018 23:00:00 17,8 10,7 16,7 21,1 14,8 10 6 18 10 O 1023,8 20 0 0,0
17.04.2018 22:00:00 18,6 10,2 14,6 21,4 14,8 10 6 14 8 ONO 1023,5 20 0 0,0
17.04.2018 21:00:00 15,9 11,5 14,5 21,5 14,8 4 2 20 11 NO 1023,0 2,2 11 0,0
17.04.2018 20:00:00 17,9 11,7 19,0 21,5 14,8 14 8 24 13 N 1022,7 2,8 60 0,0
17.04.2018 19:00:00 20,1 10,8 20,2 21,1 14,8 18 10 28 15 N 1022,8 7 60 0,0
17.04.2018 18:00:00 19,1 11,9 19,9 20,6 14,8 18 10 31 17 N 1022,6 7 60 0,0
17.04.2018 17:00:00 19,4 11,7 24,7 19,8 14,8 18 10 28 15 N 1022,8 12 60 0,0
17.04.2018 16:00:00 20,3 11,0 24,7 18,9 14,8 11 6 22 12 N 1022,9 18 60 0,0
17.04.2018 15:00:00 20,2 10,9 25,7 17,9 14,8 14 8 26 14 NNW 1022,9 19 60 -
17.04.2018 14:00:00 23,1 9,5 28,4 16,9 14,8 12 6 28 15 Z 1022,9 20 60 0,0
17.04.2018 13:00:00 21,4 9,9 24,6 16,1 14,8 13 7 31 17 ZZO 1023,2 20 60 0,0
17.04.2018 12:00:00 19,5 10,2 22,6 15,6 14,8 16 9 30 16 ZO 1023,1 16 60 0,0
17.04.2018 11:00:00 17,8 10,7 18,1 15,4 14,8 14 8 33 18 OZO 1023,1 20 60 0,0
17.04.2018 10:00:00 15,3 10,5 15,9 15,4 14,8 13 7 29 15 OZO 1022,9 19 60 0,0
17.04.2018 09:00:00 12,4 9,0 9,7 15,6 14,7 14 8 26 14 OZO 1022,6 20 60 0,0
17.04.2018 08:00:00 9,3 7,4 7,9 16,0 14,7 10 5 16 9 OZO 1022,0 20 4 0,0
17.04.2018 07:00:00 8,5 6,6 6,8 16,3 14,7 8 5 14 8 OZO 1021,5 20 0 0,0
17.04.2018 06:00:00 8,6 6,4 6,7 16,6 14,6 9 5 11 6 O 1021,6 20 0 0,0
17.04.2018 05:00:00 9,5 6,6 8,1 17,0 14,6 9 5 15 8 O 1021,6 20 0 0,0
17.04.2018 04:00:00 9,6 6,7 8,6 17,4 14,6 7 4 18 10 O 1021,5 20 0 0,0
17.04.2018 03:00:00 9,6 7,2 8,6 17,8 14,6 12 7 18 10 O 1021,6 20 0 0,0
17.04.2018 02:00:00 9,6 8,0 8,4 18,2 14,6 11 6 16 9 O 1021,4 20 0 0,0
17.04.2018 01:00:00 9,8 8,4 8,4 18,6 14,6 10 5 14 8 O 1021,1 14 0 0,0
17.04.2018 00:00:00 9,0 7,4 8,4 19,0 14,5 7 4 9 5 O 1021,3 10 0 0,0
16.04.2018 23:00:00 10,0 8,3 9,2 19,5 14,6 4 2 5 3 ONO 1021,5 5 0 0,0
16.04.2018 22:00:00 10,8 8,6 9,9 19,8 14,5 3 2 8 5 OZO 1021,1 12 0 0,0
16.04.2018 21:00:00 12,1 8,8 10,7 20,0 14,5 8 4 11 6 NNW 1020,6 7 28 0,0
16.04.2018 20:00:00 13,6 8,8 15,2 20,0 14,5 10 5 12 7 NW 1020,3 13 48 0,0
16.04.2018 19:00:00 14,7 9,3 16,7 19,7 14,6 9 5 14 7 NW 1020,1 15 58 0,0
16.04.2018 18:00:00 14,8 8,9 16,4 19,2 14,5 11 6 14 8 NW 1020,1 18 60 0,0
16.04.2018 17:00:00 15,8 9,7 21,7 18,5 14,6 12 7 18 10 NNW 1020,0 16 60 0,0
16.04.2018 16:00:00 15,6 9,3 22,1 17,7 14,6 16 9 19 11 NW 1020,2 17 60 0,0
16.04.2018 15:00:00 15,6 8,8 21,4 16,9 14,6 16 9 19 10 NW 1020,0 17 60 0,0
16.04.2018 14:00:00 15,0 9,6 20,2 16,1 14,5 13 7 16 8 NW 1019,6 16 56 0,0
16.04.2018 13:00:00 15,1 10,1 20,9 15,5 14,6 13 7 17 9 NNW 1019,7 15 60 0,0
16.04.2018 12:00:00 15,2 10,6 15,4 15,3 14,5 14 8 21 12 NNW 1019,5 12 21 0,0
16.04.2018 11:00:00 13,3 10,7 12,0 15,3 14,5 18 10 21 12 NNW 1019,1 8 0 0,0
16.04.2018 10:00:00 12,2 10,4 11,6 15,4 14,5 20 11 24 13 NNW 1018,6 9 0 0,2
16.04.2018 09:00:00 12,3 10,2 10,9 15,6 14,5 19 11 26 14 NW 1018,0 8 0 0,0
16.04.2018 08:00:00 11,9 9,6 10,5 15,8 14,5 21 11 33 18 NW 1017,0 7 0 0,0
16.04.2018 07:00:00 11,6 10,3 10,5 16,0 14,4 27 15 35 19 NW 1016,7 6 0 0,2
16.04.2018 06:00:00 11,6 10,0 10,7 16,2 14,4 27 14 36 19 NW 1016,4 7 0 0,2
16.04.2018 05:00:00 12,4 10,8 12,0 16,4 14,4 24 13 29 16 NW 1016,0 6 0 0,0
16.04.2018 04:00:00 12,4 10,8 12,0 16,6 14,4 13 7 17 9 NW 1016,0 4,2 0 0,0
16.04.2018 03:00:00 12,5 10,9 12,1 16,8 14,4 14 8 18 10 NW 1015,8 6 0 0,0

tt = temperatuur
td = dauwpunt
tt 5cm = temperatuur 5cm
tt -20cm = temperatuur -20cm
tt -100cm = temperatuur -100cm
ff = windsnelheid
fx = windstoten
dd = windrichting
ppp = luchtdruk
vv = zicht
sd = Zonneschijnduur
rr = neerslag

Weerstations in de omgeving